| time (UTC) | temp F | wind direction | speed MPH | gust MPH | rain 1hr in | rain 24hr in | rain mn in | humidity % | barometer mb |
| 20260905080511 | 60 | 316 | 0.0 | 0.0 | 0.00 | 0.00 | 0.00 | 90 | 1009.5 |
| 20260905080020 | 60 | 316 | 0.0 | 0.0 | 0.00 | 0.00 | 0.00 | 90 | 1009.5 |
| 20260905075509 | 61 | 316 | 0.0 | 0.0 | 0.00 | 0.00 | 0.00 | 90 | 1009.4 |
| 20260905075013 | 61 | 316 | 0.0 | 0.0 | 0.00 | 0.00 | 0.00 | 90 | 1009.4 |
| 20260905074523 | 61 | 316 | 0.0 | 0.0 | 0.00 | 0.00 | 0.00 | 90 | 1009.5 |
| 20260905074004 | 61 | 316 | 0.0 | 0.0 | 0.00 | 0.00 | 0.00 | 90 | 1009.4 |
| 20260905073504 | 61 | 316 | 0.0 | 0.0 | 0.00 | 0.00 | 0.00 | 90 | 1009.5 |
| 20260905073004 | 61 | 316 | 0.0 | 0.0 | 0.00 | 0.00 | 0.00 | 90 | 1009.5 |
| 20260905072503 | 61 | 316 | 0.0 | 0.0 | 0.00 | 0.00 | 0.00 | 90 | 1009.5 |
| 20260905072004 | 61 | 316 | 0.0 | 0.0 | 0.00 | 0.00 | 0.00 | 90 | 1009.5 |
| 20260905071510 | 61 | 316 | 0.0 | 0.0 | 0.00 | 0.00 | 0.00 | 90 | 1009.6 |
| 20260905071003 | 61 | 316 | 0.0 | 0.0 | 0.00 | 0.00 | 0.00 | 90 | 1009.7 |
| 20260905070503 | 61 | 316 | 0.0 | 0.0 | 0.00 | 0.00 | 0.00 | 90 | 1009.7 |
| 20260905070015 | 61 | 316 | 0.0 | 0.0 | 0.00 | 0.00 | 0.00 | 90 | 1009.7 |
| 20260905065505 | 61 | 316 | 0.0 | 0.0 | 0.00 | 0.00 | 0.00 | 89 | 1009.8 |
| 20260905065014 | 61 | 316 | 0.0 | 0.0 | 0.00 | 0.00 | 0.00 | 89 | 1009.8 |
| 20260905064518 | 61 | 316 | 0.0 | 0.0 | 0.00 | 0.00 | 0.00 | 89 | 1009.8 |
| 20260905064012 | 61 | 316 | 0.0 | 0.0 | 0.00 | 0.00 | 0.00 | 88 | 1009.9 |
| 20260905063511 | 61 | 316 | 0.0 | 0.0 | 0.00 | 0.00 | 0.00 | 88 | 1009.9 |
| 20260905063024 | 61 | 316 | 0.0 | 0.0 | 0.00 | 0.00 | 0.00 | 88 | 1009.9 |
| 20260905062503 | 62 | 316 | 0.0 | 0.0 | 0.00 | 0.00 | 0.00 | 88 | 1009.9 |
| 20260905062004 | 62 | 316 | 0.0 | 0.0 | 0.00 | 0.00 | 0.00 | 88 | 1009.9 |
| 20260905061503 | 62 | 316 | 0.0 | 0.0 | 0.00 | 0.00 | 0.00 | 88 | 1009.8 |
| 20260905061004 | 62 | 316 | 0.0 | 0.0 | 0.00 | 0.00 | 0.00 | 87 | 1009.8 |
| 20260905060503 | 62 | 316 | 0.0 | 0.0 | 0.00 | 0.00 | 0.00 | 87 | 1009.7 |
| 20260905060012 | 62 | 316 | 0.0 | 0.0 | 0.00 | 0.00 | 0.00 | 86 | 1009.8 |
| 20260905055503 | 62 | 316 | 0.0 | 0.0 | 0.00 | 0.00 | 0.00 | 86 | 1009.8 |
| 20260905055008 | 63 | 316 | 0.0 | 0.0 | 0.00 | 0.00 | 0.00 | 86 | 1009.8 |
| 20260905054522 | 63 | 316 | 0.0 | 0.0 | 0.00 | 0.00 | 0.00 | 85 | 1009.7 |
| 20260905054010 | 63 | 316 | 0.0 | 0.0 | 0.00 | 0.00 | 0.00 | 86 | 1009.8 |
| 20260905053517 | 63 | 316 | 0.0 | 0.0 | 0.00 | 0.00 | 0.00 | 85 | 1009.8 |
| 20260905053023 | 63 | 316 | 0.0 | 0.0 | 0.00 | 0.00 | 0.00 | 85 | 1009.8 |
| 20260905052511 | 63 | 316 | 0.0 | 0.0 | 0.00 | 0.00 | 0.00 | 85 | 1009.9 |
| 20260905052014 | 63 | 316 | 0.0 | 0.0 | 0.00 | 0.00 | 0.00 | 86 | 1010.0 |
| 20260905051536 | 63 | 316 | 0.0 | 2.0 | 0.00 | 0.00 | 0.00 | 85 | 1010.0 |
| 20260905051003 | 64 | 316 | 0.0 | 2.0 | 0.00 | 0.00 | 0.00 | 85 | 1009.9 |
| 20260905050504 | 64 | 316 | 0.0 | 2.0 | 0.00 | 0.00 | 0.00 | 84 | 1009.9 |
| 20260905050007 | 64 | 316 | 0.0 | 2.0 | 0.00 | 0.00 | 0.00 | 84 | 1009.9 |
| 20260905045503 | 64 | 316 | 0.0 | 2.0 | 0.00 | 0.00 | 0.00 | 84 | 1009.9 |
| 20260905045004 | 64 | 316 | 0.0 | 2.0 | 0.00 | 0.00 | 0.00 | 84 | 1009.9 |
| 20260905044512 | 64 | 316 | 0.0 | 2.0 | 0.00 | 0.00 | 0.00 | 84 | 1009.8 |
| 20260905044005 | 64 | 324 | 0.0 | 2.0 | 0.00 | 0.00 | 0.00 | 84 | 1009.9 |
| 20260905043509 | 64 | 324 | 0.0 | 2.0 | 0.00 | 0.00 | 0.00 | 84 | 1009.8 |
| 20260905043019 | 64 | 312 | 0.0 | 2.0 | 0.00 | 0.00 | 0.00 | 84 | 1009.8 |
| 20260905042511 | 64 | 312 | 0.0 | 2.0 | 0.00 | 0.00 | 0.00 | 84 | 1009.9 |
| 20260905042009 | 64 | 329 | 0.0 | 0.0 | 0.00 | 0.00 | 0.00 | 83 | 1009.9 |
| 20260905041527 | 64 | 329 | 0.0 | 0.0 | 0.00 | 0.00 | 0.00 | 83 | 1010.0 |
| 20260905041013 | 65 | 329 | 0.0 | 0.0 | 0.00 | 0.00 | 0.00 | 83 | 1009.9 |
| 20260905040512 | 65 | 329 | 0.0 | 0.0 | 0.00 | 0.00 | 0.00 | 82 | 1009.9 |
| 20260905040029 | 65 | 254 | 0.0 | 0.0 | 0.00 | 0.00 | 0.00 | 82 | 1009.9 |
| 20260905035516 | 65 | 254 | 0.0 | 0.0 | 0.00 | 0.00 | 0.00 | 81 | 1009.9 |
| 20260905035006 | 65 | 254 | 0.0 | 0.0 | 0.00 | 0.00 | 0.00 | 81 | 1009.9 |
| 20260905034513 | 65 | 254 | 0.0 | 0.0 | 0.00 | 0.00 | 0.00 | 81 | 1009.9 |
| 20260905034009 | 66 | 254 | 0.0 | 0.0 | 0.00 | 0.00 | 0.00 | 80 | 1009.9 |
| 20260905033506 | 66 | 254 | 0.0 | 0.0 | 0.00 | 0.00 | 0.00 | 81 | 1010.0 |
| 20260905033016 | 66 | 245 | 0.0 | 0.0 | 0.00 | 0.00 | 0.00 | 81 | 1010.0 |
| 20260905032510 | 66 | 245 | 0.0 | 0.0 | 0.00 | 0.00 | 0.00 | 81 | 1010.1 |
| 20260905032008 | 66 | 244 | 0.0 | 0.0 | 0.00 | 0.00 | 0.00 | 80 | 1010.1 |
| 20260905031533 | 66 | 291 | 0.0 | 0.0 | 0.00 | 0.00 | 0.00 | 80 | 1010.1 |
| 20260905031012 | 66 | 291 | 0.0 | 0.0 | 0.00 | 0.00 | 0.00 | 81 | 1010.0 |
| 20260905030511 | 66 | 291 | 0.0 | 0.0 | 0.00 | 0.00 | 0.00 | 81 | 1010.1 |
| 20260905030026 | 66 | 291 | 0.0 | 0.0 | 0.00 | 0.00 | 0.00 | 82 | 1010.2 |
| 20260905025516 | 66 | 291 | 0.0 | 2.0 | 0.00 | 0.00 | 0.00 | 82 | 1010.3 |
| 20260905025015 | 66 | 291 | 0.0 | 2.0 | 0.00 | 0.00 | 0.00 | 82 | 1010.3 |
| 20260905024552 | 66 | 110 | 0.0 | 0.0 | 0.00 | 0.00 | 0.00 | 83 | 1010.4 |
| 20260905024017 | 66 | 110 | 0.0 | 0.0 | 0.00 | 0.00 | 0.00 | 83 | 1010.5 |
| 20260905023504 | 66 | 110 | 0.0 | 0.0 | 0.00 | 0.00 | 0.00 | 83 | 1010.6 |
| 20260905023019 | 66 | 110 | 0.0 | 2.0 | 0.00 | 0.00 | 0.00 | 82 | 1010.6 |
| 20260905022508 | 66 | 110 | 0.0 | 2.0 | 0.00 | 0.00 | 0.00 | 81 | 1010.6 |
| 20260905022008 | 66 | 113 | 0.0 | 2.0 | 0.00 | 0.00 | 0.00 | 81 | 1010.4 |
| 20260905021518 | 67 | 105 | 0.0 | 0.0 | 0.00 | 0.00 | 0.00 | 80 | 1010.5 |
| 20260905021008 | 67 | 105 | 0.0 | 0.0 | 0.00 | 0.00 | 0.00 | 80 | 1010.5 |
| 20260905020511 | 67 | 105 | 0.0 | 0.0 | 0.00 | 0.00 | 0.00 | 80 | 1010.6 |
| 20260905020030 | 67 | 105 | 0.0 | 0.0 | 0.00 | 0.00 | 0.00 | 80 | 1010.5 |
| 20260905015517 | 67 | 105 | 0.0 | 0.0 | 0.00 | 0.00 | 0.00 | 80 | 1010.5 |
| 20260905015014 | 67 | 105 | 0.0 | 0.0 | 0.00 | 0.00 | 0.00 | 80 | 1010.6 |
| 20260905014527 | 67 | 105 | 0.0 | 0.0 | 0.00 | 0.00 | 0.00 | 81 | 1010.6 |
| 20260905014020 | 67 | 105 | 0.0 | 0.0 | 0.00 | 0.00 | 0.00 | 80 | 1010.7 |
| 20260905013516 | 67 | 105 | 0.0 | 0.0 | 0.00 | 0.00 | 0.00 | 80 | 1010.6 |
| 20260905013040 | 67 | 105 | 0.0 | 1.0 | 0.00 | 0.00 | 0.00 | 80 | 1010.6 |
| 20260905012514 | 67 | 105 | 0.0 | 1.0 | 0.00 | 0.00 | 0.00 | 80 | 1010.7 |
| 20260905012005 | 67 | 105 | 0.0 | 1.0 | 0.00 | 0.01 | 0.00 | 80 | 1010.6 |
| 20260905011515 | 68 | 105 | 0.0 | 0.0 | 0.00 | 0.01 | 0.00 | 80 | 1010.6 |
| 20260905011014 | 68 | 105 | 0.0 | 0.0 | 0.00 | 0.02 | 0.00 | 80 | 1010.6 |
| 20260905010512 | 68 | 105 | 0.0 | 1.0 | 0.00 | 0.15 | 0.00 | 79 | 1010.7 |
| 20260905010022 | 68 | 105 | 0.0 | 1.0 | 0.00 | 0.30 | 0.00 | 79 | 1010.7 |
| 20260905005510 | 68 | 105 | 0.0 | 1.0 | 0.00 | 0.32 | 0.00 | 79 | 1010.8 |
| 20260905005014 | 68 | 105 | 0.0 | 1.0 | 0.00 | 0.32 | 0.00 | 78 | 1010.8 |
| 20260905004531 | 68 | 105 | 0.0 | 0.0 | 0.00 | 0.32 | 0.00 | 78 | 1010.7 |
| 20260905004015 | 68 | 105 | 0.0 | 0.0 | 0.00 | 0.32 | 0.00 | 77 | 1010.7 |
| 20260905003512 | 69 | 105 | 0.0 | 0.0 | 0.00 | 0.32 | 0.00 | 76 | 1010.6 |
| 20260905003029 | 69 | 105 | 0.0 | 0.0 | 0.00 | 0.32 | 0.00 | 76 | 1010.6 |
| 20260905002516 | 69 | 105 | 0.0 | 0.0 | 0.00 | 0.32 | 0.00 | 77 | 1010.5 |
| 20260905002016 | 69 | 105 | 0.0 | 0.0 | 0.00 | 0.32 | 0.00 | 76 | 1010.5 |
| 20260905001531 | 69 | 105 | 0.0 | 2.0 | 0.00 | 0.32 | 0.00 | 77 | 1010.6 |
| 20260905001017 | 69 | 105 | 0.0 | 2.0 | 0.00 | 0.32 | 0.00 | 76 | 1010.6 |
| 20260905000516 | 69 | 105 | 0.0 | 2.0 | 0.00 | 0.32 | 0.00 | 76 | 1010.5 |
| 20260905000020 | 70 | 257 | 0.0 | 0.0 | 0.00 | 0.32 | 0.00 | 77 | 1010.5 |
| 20260904235513 | 70 | 257 | 0.0 | 0.0 | 0.00 | 0.32 | 0.00 | 76 | 1010.5 |
| 20260904235008 | 70 | 257 | 0.0 | 0.0 | 0.00 | 0.32 | 0.00 | 76 | 1010.5 |
| 20260904234502 | 70 | 257 | 0.0 | 0.0 | 0.00 | 0.32 | 0.00 | 76 | 1010.4 |
| 20260904234003 | 70 | 257 | 0.0 | 0.0 | 0.00 | 0.32 | 0.00 | 76 | 1010.3 |
| 20260904233503 | 70 | 257 | 0.0 | 1.0 | 0.00 | 0.32 | 0.00 | 75 | 1010.2 |
| 20260904233003 | 71 | 257 | 0.0 | 1.0 | 0.00 | 0.32 | 0.00 | 75 | 1010.2 |
| 20260904232503 | 71 | 113 | 0.0 | 0.0 | 0.00 | 0.32 | 0.00 | 76 | 1010.1 |
| 20260904232002 | 71 | 113 | 0.0 | 0.0 | 0.00 | 0.32 | 0.00 | 76 | 1010.2 |
| 20260904231507 | 72 | 113 | 0.0 | 0.0 | 0.00 | 0.32 | 0.00 | 76 | 1010.2 |
| 20260904231007 | 72 | 113 | 0.0 | 0.0 | 0.00 | 0.32 | 0.00 | 75 | 1010.3 |
| 20260904230511 | 72 | 113 | 0.0 | 0.0 | 0.00 | 0.32 | 0.00 | 74 | 1010.2 |
| 20260904230017 | 72 | 113 | 0.0 | 0.0 | 0.00 | 0.32 | 0.00 | 72 | 1010.3 |
| 20260904225512 | 73 | 113 | 0.0 | 0.0 | 0.00 | 0.32 | 0.00 | 71 | 1010.2 |
| 20260904225009 | 73 | 112 | 0.0 | 0.0 | 0.00 | 0.32 | 0.00 | 69 | 1010.2 |
| 20260904224520 | 73 | 124 | 0.0 | 0.0 | 0.00 | 0.32 | 0.00 | 69 | 1010.2 |
| 20260904224015 | 74 | 179 | 0.0 | 0.0 | 0.00 | 0.32 | 0.00 | 68 | 1010.1 |
| 20260904223511 | 74 | 179 | 0.0 | 3.0 | 0.00 | 0.32 | 0.00 | 67 | 1010.1 |
| 20260904223005 | 74 | 236 | 0.0 | 3.0 | 0.00 | 0.32 | 0.00 | 67 | 1010.0 |
| 20260904222507 | 74 | 306 | 0.0 | 3.0 | 0.00 | 0.32 | 0.00 | 69 | 1010.1 |
| 20260904222003 | 74 | 10 | 0.0 | 2.0 | 0.00 | 0.32 | 0.00 | 71 | 1010.0 |
| 20260904221508 | 74 | 59 | 0.0 | 2.0 | 0.00 | 0.32 | 0.00 | 70 | 1010.0 |
| 20260904221003 | 74 | 75 | 0.0 | 0.0 | 0.00 | 0.32 | 0.00 | 70 | 1010.0 |
| 20260904220504 | 74 | 75 | 0.0 | 2.0 | 0.00 | 0.32 | 0.00 | 69 | 1010.0 |
| 20260904220012 | 74 | 75 | 0.0 | 2.0 | 0.00 | 0.32 | 0.00 | 67 | 1009.8 |
| 20260904215507 | 74 | 68 | 0.0 | 2.0 | 0.00 | 0.32 | 0.00 | 69 | 1009.9 |
| 20260904215007 | 74 | 134 | 0.0 | 2.0 | 0.00 | 0.32 | 0.00 | 69 | 1009.9 |
| 20260904214516 | 74 | 102 | 0.0 | 2.0 | 0.00 | 0.32 | 0.00 | 69 | 1009.9 |
| 20260904214011 | 74 | 108 | 0.0 | 2.0 | 0.00 | 0.32 | 0.00 | 69 | 1009.9 |
| 20260904213511 | 74 | 224 | 0.0 | 1.0 | 0.00 | 0.32 | 0.00 | 69 | 1009.9 |
| 20260904213032 | 74 | 224 | 0.0 | 1.0 | 0.00 | 0.32 | 0.00 | 69 | 1009.9 |
| 20260904212511 | 75 | 278 | 0.0 | 0.0 | 0.00 | 0.32 | 0.00 | 69 | 1009.9 |
| 20260904212013 | 75 | 279 | 0.0 | 0.0 | 0.00 | 0.32 | 0.00 | 67 | 1009.9 |
| 20260904211507 | 75 | 279 | 0.0 | 0.0 | 0.00 | 0.32 | 0.00 | 65 | 1009.9 |
| 20260904211001 | 76 | 279 | 0.0 | 0.0 | 0.00 | 0.32 | 0.00 | 66 | 1009.9 |
| 20260904210502 | 76 | 274 | 0.0 | 3.0 | 0.00 | 0.32 | 0.00 | 66 | 1009.9 |
| 20260904210010 | 76 | 274 | 0.0 | 3.0 | 0.00 | 0.32 | 0.00 | 65 | 1009.8 |
| 20260904205505 | 76 | 307 | 1.0 | 3.0 | 0.00 | 0.32 | 0.00 | 65 | 1009.8 |
| 20260904205006 | 76 | 100 | 0.0 | 2.0 | 0.00 | 0.32 | 0.00 | 63 | 1009.8 |
| 20260904204516 | 77 | 15 | 0.0 | 3.0 | 0.00 | 0.32 | 0.00 | 63 | 1009.8 |
| 20260904204006 | 77 | 15 | 0.0 | 3.0 | 0.00 | 0.32 | 0.00 | 63 | 1009.8 |
| 20260904203508 | 78 | 334 | 0.0 | 2.0 | 0.00 | 0.32 | 0.00 | 63 | 1009.7 |
| 20260904203029 | 78 | 100 | 0.0 | 4.0 | 0.00 | 0.32 | 0.00 | 61 | 1009.7 |
| 20260904202511 | 78 | 80 | 2.0 | 4.0 | 0.00 | 0.32 | 0.00 | 61 | 1009.6 |
| 20260904202012 | 78 | 19 | 0.0 | 4.0 | 0.00 | 0.32 | 0.00 | 62 | 1009.6 |
| 20260904201539 | 78 | 75 | 1.0 | 5.0 | 0.00 | 0.32 | 0.00 | 61 | 1009.6 |
| 20260904201011 | 78 | 230 | 1.0 | 5.0 | 0.00 | 0.32 | 0.00 | 61 | 1009.5 |
| 20260904200516 | 78 | 262 | 1.0 | 5.0 | 0.00 | 0.32 | 0.00 | 61 | 1009.6 |
| 20260904200021 | 78 | 81 | 2.0 | 8.0 | 0.00 | 0.32 | 0.00 | 62 | 1009.6 |
| 20260904195504 | 78 | 314 | 2.0 | 8.0 | 0.00 | 0.32 | 0.00 | 64 | 1009.6 |
| 20260904195002 | 77 | 13 | 0.0 | 4.0 | 0.00 | 0.32 | 0.00 | 65 | 1009.6 |
| 20260904194513 | 77 | 32 | 0.0 | 4.0 | 0.00 | 0.32 | 0.00 | 64 | 1009.8 |
| 20260904194009 | 77 | 282 | 0.0 | 4.0 | 0.00 | 0.32 | 0.00 | 65 | 1009.9 |
| 20260904193506 | 77 | 42 | 0.0 | 3.0 | 0.00 | 0.32 | 0.00 | 67 | 1009.9 |
| 20260904193019 | 77 | 288 | 0.0 | 3.0 | 0.00 | 0.32 | 0.00 | 64 | 1009.9 |
| 20260904192511 | 77 | 304 | 1.0 | 3.0 | 0.00 | 0.32 | 0.00 | 66 | 1010.0 |
| 20260904192010 | 77 | 77 | 0.0 | 3.0 | 0.00 | 0.32 | 0.00 | 66 | 1010.0 |
| 20260904191522 | 77 | 165 | 0.0 | 4.0 | 0.00 | 0.32 | 0.00 | 65 | 1010.0 |
| 20260904191012 | 78 | 100 | 1.0 | 4.0 | 0.00 | 0.32 | 0.00 | 66 | 1009.9 |
| 20260904190514 | 78 | 165 | 0.0 | 3.0 | 0.00 | 0.32 | 0.00 | 62 | 1010.0 |
| 20260904190027 | 78 | 328 | 0.0 | 5.0 | 0.00 | 0.32 | 0.00 | 63 | 1009.9 |
| 20260904185514 | 78 | 53 | 2.0 | 5.0 | 0.00 | 0.32 | 0.00 | 60 | 1009.9 |
| 20260904185016 | 78 | 11 | 1.0 | 5.0 | 0.00 | 0.32 | 0.00 | 64 | 1009.9 |
| 20260904184532 | 78 | 293 | 0.0 | 4.0 | 0.00 | 0.32 | 0.00 | 63 | 1009.9 |
| 20260904184006 | 78 | 169 | 1.0 | 4.0 | 0.00 | 0.32 | 0.00 | 63 | 1010.0 |
| 20260904183506 | 78 | 57 | 1.0 | 4.0 | 0.00 | 0.32 | 0.00 | 66 | 1010.2 |
| 20260904183015 | 77 | 31 | 0.0 | 4.0 | 0.00 | 0.32 | 0.00 | 67 | 1010.2 |
| 20260904182510 | 77 | 263 | 1.0 | 4.0 | 0.00 | 0.32 | 0.00 | 67 | 1010.3 |
| 20260904182014 | 77 | 352 | 0.0 | 4.0 | 0.00 | 0.32 | 0.00 | 66 | 1010.2 |
| 20260904181518 | 78 | 307 | 1.0 | 3.0 | 0.00 | 0.32 | 0.00 | 65 | 1010.2 |
| 20260904181013 | 78 | 302 | 0.0 | 3.0 | 0.00 | 0.32 | 0.00 | 63 | 1010.1 |
| 20260904180513 | 79 | 297 | 0.0 | 3.0 | 0.00 | 0.32 | 0.00 | 62 | 1010.0 |
| 20260904180022 | 79 | 321 | 0.0 | 7.0 | 0.00 | 0.32 | 0.00 | 62 | 1010.0 |
| 20260904175516 | 79 | 1 | 1.0 | 7.0 | 0.00 | 0.32 | 0.00 | 62 | 1010.0 |
| 20260904175014 | 79 | 27 | 0.0 | 4.0 | 0.00 | 0.32 | 0.00 | 63 | 1010.0 |
| 20260904174528 | 79 | 37 | 0.0 | 4.0 | 0.00 | 0.32 | 0.00 | 61 | 1010.0 |
| 20260904174016 | 80 | 359 | 0.0 | 4.0 | 0.00 | 0.32 | 0.00 | 65 | 1010.1 |
| 20260904173520 | 80 | 86 | 0.0 | 5.0 | 0.00 | 0.32 | 0.00 | 63 | 1010.1 |
| 20260904173033 | 80 | 359 | 1.0 | 5.0 | 0.00 | 0.32 | 0.00 | 63 | 1010.1 |
| 20260904172506 | 80 | 302 | 0.0 | 5.0 | 0.00 | 0.32 | 0.00 | 63 | 1010.0 |
| 20260904172006 | 80 | 199 | 1.0 | 5.0 | 0.00 | 0.32 | 0.00 | 63 | 1010.1 |
| 20260904171535 | 80 | 28 | 1.0 | 7.0 | 0.00 | 0.32 | 0.00 | 63 | 1010.2 |
| 20260904171010 | 81 | 279 | 2.0 | 7.0 | 0.00 | 0.32 | 0.00 | 63 | 1010.1 |
| 20260904170508 | 81 | 289 | 2.0 | 6.0 | 0.00 | 0.32 | 0.00 | 65 | 1010.2 |
| 20260904170023 | 80 | 311 | 1.0 | 5.0 | 0.00 | 0.32 | 0.00 | 66 | 1010.2 |
| 20260904165516 | 80 | 140 | 2.0 | 5.0 | 0.00 | 0.32 | 0.00 | 65 | 1010.2 |
| 20260904165014 | 79 | 188 | 1.0 | 5.0 | 0.00 | 0.32 | 0.00 | 66 | 1010.2 |
| 20260904164528 | 79 | 139 | 0.0 | 5.0 | 0.00 | 0.32 | 0.00 | 68 | 1010.3 |
| 20260904164020 | 79 | 282 | 1.0 | 3.0 | 0.00 | 0.32 | 0.00 | 70 | 1010.3 |
| 20260904163516 | 79 | 184 | 0.0 | 6.0 | 0.00 | 0.32 | 0.00 | 68 | 1010.4 |
| 20260904163046 | 79 | 184 | 0.0 | 6.0 | 0.00 | 0.32 | 0.00 | 68 | 1010.6 |
| 20260904162515 | 80 | 159 | 1.0 | 4.0 | 0.00 | 0.32 | 0.00 | 65 | 1010.5 |
| 20260904162016 | 80 | 22 | 0.0 | 4.0 | 0.00 | 0.32 | 0.00 | 64 | 1010.6 |
| 20260904161530 | 80 | 293 | 2.0 | 4.0 | 0.00 | 0.32 | 0.00 | 67 | 1010.6 |
| 20260904161007 | 79 | 141 | 1.0 | 4.0 | 0.00 | 0.32 | 0.00 | 66 | 1010.6 |
| 20260904160510 | 79 | 93 | 1.0 | 4.0 | 0.00 | 0.32 | 0.00 | 69 | 1010.7 |
| 20260904160020 | 79 | 61 | 0.0 | 4.0 | 0.00 | 0.32 | 0.00 | 71 | 1010.7 |
| 20260904155512 | 79 | 285 | 1.0 | 3.0 | 0.00 | 0.32 | 0.00 | 69 | 1010.9 |
| 20260904155012 | 79 | 323 | 1.0 | 5.0 | 0.00 | 0.32 | 0.00 | 69 | 1011.0 |
| 20260904154526 | 79 | 44 | 1.0 | 5.0 | 0.00 | 0.32 | 0.00 | 68 | 1010.9 |
| 20260904154017 | 79 | 319 | 1.0 | 3.0 | 0.00 | 0.32 | 0.00 | 68 | 1010.9 |
| 20260904153515 | 79 | 46 | 0.0 | 2.0 | 0.00 | 0.32 | 0.00 | 71 | 1010.9 |
| 20260904153049 | 79 | 60 | 0.0 | 4.0 | 0.00 | 0.32 | 0.00 | 69 | 1010.9 |
| 20260904152512 | 78 | 345 | 1.0 | 4.0 | 0.00 | 0.32 | 0.00 | 70 | 1011.0 |
| 20260904152017 | 78 | 157 | 0.0 | 5.0 | 0.00 | 0.32 | 0.00 | 71 | 1011.0 |
| 20260904151538 | 78 | 155 | 1.0 | 5.0 | 0.00 | 0.32 | 0.00 | 73 | 1011.0 |
| 20260904151016 | 77 | 154 | 0.0 | 3.0 | 0.00 | 0.32 | 0.00 | 74 | 1010.8 |
| 20260904150520 | 77 | 181 | 0.0 | 3.0 | 0.00 | 0.32 | 0.00 | 74 | 1010.8 |
| 20260904150007 | 77 | 324 | 0.0 | 3.0 | 0.00 | 0.32 | 0.00 | 75 | 1010.9 |
| 20260904145504 | 77 | 73 | 1.0 | 4.0 | 0.00 | 0.32 | 0.00 | 75 | 1010.9 |
| 20260904145004 | 77 | 91 | 1.0 | 4.0 | 0.00 | 0.32 | 0.00 | 76 | 1011.0 |
| 20260904144507 | 76 | 111 | 0.0 | 5.0 | 0.00 | 0.32 | 0.00 | 77 | 1011.0 |
| 20260904144003 | 76 | 304 | 1.0 | 5.0 | 0.00 | 0.32 | 0.00 | 77 | 1011.0 |
| 20260904143503 | 75 | 275 | 1.0 | 3.0 | 0.00 | 0.32 | 0.00 | 77 | 1011.1 |
| 20260904143004 | 75 | 114 | 0.0 | 3.0 | 0.00 | 0.32 | 0.00 | 82 | 1011.1 |
| 20260904142505 | 75 | 36 | 0.0 | 3.0 | 0.00 | 0.32 | 0.00 | 82 | 1011.2 |
| 20260904142003 | 75 | 63 | 0.0 | 3.0 | 0.00 | 0.32 | 0.00 | 82 | 1011.2 |
| 20260904141512 | 74 | 328 | 1.0 | 3.0 | 0.00 | 0.32 | 0.00 | 83 | 1011.1 |
| 20260904141002 | 74 | 274 | 1.0 | 5.0 | 0.00 | 0.32 | 0.00 | 84 | 1011.2 |
| 20260904140514 | 73 | 279 | 2.0 | 5.0 | 0.00 | 0.32 | 0.00 | 84 | 1011.2 |
| 20260904140010 | 72 | 92 | 0.0 | 2.0 | 0.00 | 0.32 | 0.00 | 87 | 1011.2 |
| 20260904135504 | 72 | 89 | 0.0 | 2.0 | 0.00 | 0.32 | 0.00 | 89 | 1011.1 |
| 20260904135006 | 71 | 86 | 0.0 | 2.0 | 0.00 | 0.32 | 0.00 | 91 | 1011.2 |
| 20260904134508 | 71 | 86 | 0.0 | 2.0 | 0.00 | 0.32 | 0.00 | 93 | 1011.2 |
| 20260904134003 | 70 | 9 | 0.0 | 3.0 | 0.00 | 0.32 | 0.00 | 94 | 1011.2 |
| 20260904133511 | 70 | 123 | 0.0 | 3.0 | 0.00 | 0.32 | 0.00 | 95 | 1011.3 |
| 20260904133011 | 69 | 41 | 0.0 | 2.0 | 0.00 | 0.32 | 0.00 | 97 | 1011.2 |
| 20260904132509 | 69 | 53 | 0.0 | 2.0 | 0.00 | 0.32 | 0.00 | 98 | 1011.3 |
| 20260904132004 | 68 | 59 | 0.0 | 2.0 | 0.00 | 0.32 | 0.00 | 98 | 1011.3 |
| 20260904131506 | 68 | 107 | 0.0 | 2.0 | 0.00 | 0.32 | 0.00 | 98 | 1011.3 |
| 20260904131003 | 68 | 155 | 1.0 | 2.0 | 0.00 | 0.32 | 0.00 | 98 | 1011.2 |
| 20260904130511 | 68 | 314 | 0.0 | 2.0 | 0.00 | 0.32 | 0.00 | 98 | 1011.2 |
| 20260904130009 | 67 | 285 | 0.0 | 2.0 | 0.00 | 0.32 | 0.00 | 98 | 1011.2 |
| 20260904125509 | 67 | 285 | 0.0 | 2.0 | 0.00 | 0.32 | 0.00 | 98 | 1011.2 |
| 20260904125006 | 66 | 285 | 0.0 | 2.0 | 0.00 | 0.32 | 0.00 | 98 | 1011.2 |
| 20260904124511 | 66 | 284 | 0.0 | 2.0 | 0.00 | 0.32 | 0.00 | 97 | 1011.1 |
| 20260904124007 | 66 | 271 | 0.0 | 2.0 | 0.00 | 0.32 | 0.00 | 97 | 1011.1 |
| 20260904123510 | 66 | 277 | 0.0 | 2.0 | 0.00 | 0.32 | 0.00 | 98 | 1011.2 |
| 20260904123014 | 66 | 277 | 1.0 | 2.0 | 0.00 | 0.32 | 0.00 | 98 | 1011.1 |
| 20260904122510 | 66 | 276 | 0.0 | 3.0 | 0.00 | 0.32 | 0.00 | 98 | 1011.1 |
| 20260904122006 | 65 | 276 | 0.0 | 3.0 | 0.00 | 0.32 | 0.00 | 98 | 1011.2 |
| 20260904121512 | 65 | 274 | 0.0 | 2.0 | 0.00 | 0.32 | 0.00 | 98 | 1011.2 |
| 20260904121008 | 65 | 274 | 0.0 | 2.0 | 0.00 | 0.32 | 0.00 | 98 | 1011.2 |
| 20260904120504 | 65 | 276 | 0.0 | 2.0 | 0.00 | 0.32 | 0.00 | 97 | 1011.2 |
| 20260904120013 | 65 | 177 | 0.0 | 0.0 | 0.00 | 0.32 | 0.00 | 98 | 1011.2 |
| 20260904115506 | 64 | 177 | 0.0 | 0.0 | 0.00 | 0.32 | 0.00 | 97 | 1011.2 |
| 20260904115006 | 64 | 177 | 0.0 | 0.0 | 0.00 | 0.32 | 0.00 | 97 | 1011.3 |
| 20260904114512 | 64 | 179 | 0.0 | 0.0 | 0.00 | 0.32 | 0.00 | 97 | 1011.2 |
| 20260904114008 | 64 | 179 | 0.0 | 0.0 | 0.00 | 0.32 | 0.00 | 97 | 1011.2 |
| 20260904113512 | 64 | 179 | 0.0 | 1.0 | 0.00 | 0.32 | 0.00 | 97 | 1011.1 |
| 20260904113016 | 64 | 202 | 0.0 | 1.0 | 0.00 | 0.32 | 0.00 | 97 | 1011.0 |
| 20260904112507 | 64 | 174 | 0.0 | 0.0 | 0.00 | 0.32 | 0.00 | 97 | 1011.0 |
| 20260904112007 | 64 | 168 | 0.0 | 0.0 | 0.00 | 0.32 | 0.00 | 97 | 1010.9 |
| 20260904111519 | 64 | 124 | 0.0 | 0.0 | 0.00 | 0.32 | 0.00 | 97 | 1010.8 |
| 20260904111007 | 64 | 124 | 0.0 | 0.0 | 0.00 | 0.32 | 0.00 | 97 | 1010.8 |
| 20260904110511 | 64 | 124 | 0.0 | 0.0 | 0.00 | 0.32 | 0.00 | 97 | 1010.8 |
| 20260904110015 | 64 | 124 | 0.0 | 0.0 | 0.00 | 0.33 | 0.00 | 97 | 1010.8 |
| 20260904105508 | 64 | 124 | 0.0 | 1.0 | 0.00 | 0.33 | 0.00 | 97 | 1010.8 |
| 20260904105003 | 64 | 124 | 0.0 | 1.0 | 0.00 | 0.33 | 0.00 | 97 | 1010.8 |
| 20260904104510 | 64 | 115 | 0.0 | 1.0 | 0.00 | 0.33 | 0.00 | 97 | 1010.9 |
| 20260904104009 | 64 | 116 | 0.0 | 1.0 | 0.00 | 0.33 | 0.00 | 97 | 1010.8 |
| 20260904103518 | 64 | 184 | 0.0 | 1.0 | 0.00 | 0.33 | 0.00 | 97 | 1010.8 |
| 20260904103014 | 64 | 254 | 0.0 | 2.0 | 0.00 | 0.33 | 0.00 | 97 | 1010.8 |
| 20260904102508 | 64 | 253 | 0.0 | 2.0 | 0.00 | 0.34 | 0.00 | 97 | 1010.8 |
| 20260904102009 | 64 | 240 | 0.0 | 2.0 | 0.00 | 0.34 | 0.00 | 97 | 1010.6 |
| 20260904101521 | 64 | 248 | 0.0 | 2.0 | 0.00 | 0.35 | 0.00 | 97 | 1010.6 |
| 20260904101012 | 64 | 275 | 0.0 | 0.0 | 0.00 | 0.36 | 0.00 | 97 | 1010.6 |
| 20260904100511 | 64 | 275 | 0.0 | 0.0 | 0.00 | 0.36 | 0.00 | 97 | 1010.6 |
| 20260904100020 | 64 | 275 | 0.0 | 0.0 | 0.00 | 0.36 | 0.00 | 97 | 1010.6 |
| 20260904095507 | 64 | 275 | 0.0 | 0.0 | 0.00 | 0.36 | 0.00 | 97 | 1010.6 |
| 20260904095011 | 64 | 275 | 0.0 | 0.0 | 0.00 | 0.36 | 0.00 | 97 | 1010.5 |
| 20260904094518 | 64 | 275 | 0.0 | 1.0 | 0.00 | 0.36 | 0.00 | 97 | 1010.6 |
| 20260904094008 | 64 | 275 | 0.0 | 1.0 | 0.00 | 0.36 | 0.00 | 97 | 1010.7 |
| 20260904093511 | 65 | 275 | 0.0 | 1.0 | 0.00 | 0.36 | 0.00 | 97 | 1010.7 |
| 20260904093012 | 65 | 275 | 0.0 | 1.0 | 0.00 | 0.36 | 0.00 | 97 | 1010.8 |
| 20260904092507 | 65 | 274 | 0.0 | 2.0 | 0.00 | 0.36 | 0.00 | 97 | 1010.8 |
| 20260904092008 | 65 | 274 | 0.0 | 2.0 | 0.00 | 0.36 | 0.00 | 97 | 1010.8 |
| 20260904091521 | 65 | 275 | 0.0 | 1.0 | 0.00 | 0.36 | 0.00 | 97 | 1010.8 |
| 20260904091011 | 65 | 275 | 0.0 | 0.0 | 0.00 | 0.36 | 0.00 | 97 | 1010.8 |
| 20260904090513 | 65 | 275 | 0.0 | 0.0 | 0.00 | 0.36 | 0.00 | 97 | 1010.8 |
| 20260904090004 | 65 | 275 | 0.0 | 0.0 | 0.00 | 0.36 | 0.00 | 97 | 1010.8 |
| 20260904085504 | 65 | 275 | 0.0 | 2.0 | 0.00 | 0.36 | 0.00 | 97 | 1010.8 |
| 20260904085003 | 65 | 275 | 0.0 | 2.0 | 0.00 | 0.36 | 0.00 | 97 | 1010.8 |
| 20260904084506 | 65 | 274 | 0.0 | 2.0 | 0.00 | 0.36 | 0.00 | 97 | 1010.9 |
| 20260904084006 | 65 | 275 | 0.0 | 1.0 | 0.00 | 0.36 | 0.00 | 97 | 1010.8 |
| 20260904083503 | 65 | 275 | 0.0 | 2.0 | 0.00 | 0.36 | 0.00 | 97 | 1010.8 |
| 20260904083007 | 65 | 275 | 0.0 | 2.0 | 0.00 | 0.36 | 0.00 | 97 | 1010.7 |
| 20260904082507 | 65 | 165 | 0.0 | 1.0 | 0.00 | 0.37 | 0.00 | 97 | 1010.7 |
| 20260904082007 | 65 | 165 | 0.0 | 1.0 | 0.00 | 0.38 | 0.00 | 97 | 1010.7 |
| 20260904081517 | 65 | 165 | 0.0 | 1.0 | 0.00 | 0.42 | 0.00 | 97 | 1010.7 |
| 20260904081007 | 65 | 165 | 0.0 | 1.0 | 0.00 | 0.44 | 0.00 | 97 | 1010.7 |